Simultaneous Nadir Overpasses (SNOs) Predictions

Prediction of SNOs between GOES-17 and LANDSAT-8 Satellite Orbit:

Table of predicted SNOs for the next 14.0 days since TLE Epoch: 6/6/2025
Index Date Time (GOES-17) GOES-17 Lat,Lon LANDSAT-8 Lat,Lon Distance(km) Time Diff (sec)
1 06/07/2025 05:27:28 -0.01,-104.38 -0.89,-108.45 462.49 80
2 06/08/2025 16:53:56 0.01,-104.44 -0.89,-100.31 469.87 80
3 06/09/2025 05:15:20 -0.01,-104.38 -0.26,-105.50 127.12 80
4 06/11/2025 05:00:31 -0.00,-104.38 0.38,-102.55 208.01 80
5 06/11/2025 17:21:46 0.00,-104.43 0.72,-107.70 372.46 80
6 06/13/2025 17:09:37 0.00,-104.43 0.06,-104.76 37.30 80
7 06/15/2025 17:00:08 0.00,-104.42 -0.54,-101.80 298.07 80
8 06/16/2025 05:21:32 -0.00,-104.37 -0.54,-107.00 298.15 80
9 06/18/2025 05:06:42 -0.01,-104.37 0.08,-104.04 37.52 80
10 06/20/2025 04:54:32 -0.00,-104.36 0.71,-101.09 373.12 80
11 06/20/2025 17:15:48 0.00,-104.41 0.37,-106.24 207.95 80
